Dewpoint
74 74 74 75 75 75 74 74 75 75 75 74 74 74 74 74 73 73 74 74 74 73 74 73 73 73 72 73 74 74 72 72 73 73 73 74 74 75 74 73 73 72 72 73 73 73 73 73 72 72 73 73 72 72 72 72 72 72 72 72 72 71 71 71 71 71 71 70 70 70 70 70 71 71 71 71 71 71 71 71 72 71 71 72 72
74 75 74 74 74 75 75 74 75 74 75 73 74 74 74 73 73 73 74 74 73 74 74 72 70 72 72 72 72 73 73 72 73 73 73 74 74 75 75 74 72 73 72 72 73 72 73 73 73 72 72 73 72 72 72 72 72 72 72 72 72 71 72 71 71 71 71 71 70 71 70 70 71 71 71 71 72 72 72 72 73 72 72 72 72
74 74 74 74 74 74 74 74 74 74 74 73 74 74 73 73 73 74 74 74 74 74 74 74 72 72 73 71 71 73 72 73 72 73 73 74 74 76 76 74 74 74 73 72 73 73 73 73 73 72 72 72 72 72 72 72 72 72 72 72 72 72 71 71 71 71 71 71 71 71 71 71 71 71 71 72 72 72 73 73 73 72 72 72 72
74 74 75 74 74 74 74 74 74 74 75 74 74 75 74 73 74 75 75 74 73 72 74 73 73 72 71 70 71 72 72 72 72 72 73 74 75 75 76 75 73 73 72 73 73 73 73 73 73 73 72 72 72 72 72 72 72 72 72 72 72 72 71 72 72 71 71 71 72 72 71 71 71 71 72 73 72 73 73 73 72 72 72 72 72
73 75 76 74 74 74 74 74 74 74 75 74 74 75 75 74 73 76 74 73 72 72 74 73 72 72 71 69 71 71 72 72 73 73 73 73 74 75 75 76 75 73 73 74 73 73 73 73 74 73 73 72 72 72 72 72 72 72 72 72 72 72 72 72 72 71 72 72 72 72 72 71 71 72 72 72 72 72 72 72 72 72 72 72 72
73 75 75 74 74 74 74 74 75 75 75 75 74 74 74 73 73 74 75 74 72 72 72 71 71 70 70 69 71 72 72 72 72 73 73 73 74 75 75 76 75 75 74 74 74 73 73 73 73 73 73 73 72 72 72 72 72 72 72 71 71 71 71 71 71 71 71 72 72 72 72 72 72 72 72 72 72 72 72 72 72 72 72 72 72
73 74 75 74 74 74 74 74 74 75 74 74 73 73 73 73 74 74 73 73 73 74 73 71 71 69 70 69 70 71 72 72 72 73 73 74 74 74 75 75 75 75 75 75 74 74 74 73 73 73 73 73 73 73 72 72 72 72 72 72 71 71 72 71 71 72 72 71 71 72 72 72 72 72 72 72 72 72 72 72 72 72 72 73 73
73 74 75 74 74 74 74 74 75 75 74 74 74 73 74 74 75 74 73 72 74 73 72 72 70 69 69 70 71 72 71 72 72 72 73 74 74 74 75 75 75 75 75 74 75 75 74 74 74 74 73 73 73 73 73 72 72 72 73 72 72 72 72 72 72 72 72 72 73 72 72 72 72 72 72 72 72 72 72 72 72 72 72 73 73
74 74 75 74 74 74 74 74 75 74 74 74 74 74 74 74 74 75 73 72 73 73 71 71 69 67 69 69 70 71 71 72 72 73 73 73 74 74 74 75 75 75 75 75 75 75 75 74 74 74 74 73 73 73 73 73 73 72 72 72 73 73 72 73 72 72 73 73 72 73 72 72 72 72 72 72 71 72 72 72 73 73 73 73 73
74 74 74 74 74 74 74 75 75 74 74 74 74 74 74 74 74 74 74 74 74 72 71 69 67 67 69 69 70 70 71 72 73 74 73 73 73 74 74 74 74 74 74 74 73 74 74 74 74 74 74 73 74 74 73 73 73 72 72 73 72 73 73 72 72 72 72 72 73 73 72 72 72 72 72 72 72 73 73 73 73 73 72 72 72
74 74 74 74 74 74 74 75 76 75 74 74 75 75 75 74 73 74 75 75 73 73 71 68 67 68 68 68 69 70 71 73 73 72 72 72 73 74 73 73 73 74 74 74 74 74 74 75 75 75 75 74 74 74 73 73 73 73 73 73 73 73 73 72 72 73 73 73 72 73 72 72 72 72 72 72 72 73 73 73 72 71 71 71 71
74 74 74 74 74 74 74 75 76 75 74 74 74 74 74 74 73 73 72 73 71 70 69 67 65 67 68 67 68 69 72 71 71 71 72 72 73 74 73 73 74 73 73 74 74 73 74 74 75 75 74 74 74 74 74 73 73 73 73 73 73 73 73 72 73 73 73 72 72 72 72 72 72 72 72 72 72 72 72 72 71 70 71 71 71
75 74 74 75 74 74 75 75 75 75 74 74 74 74 74 73 74 76 72 71 70 68 66 65 65 66 66 65 67 69 72 70 69 70 70 71 72 73 73 73 73 73 73 73 73 73 73 74 74 74 75 75 74 74 74 73 73 74 73 73 73 72 73 73 73 72 72 73 72 72 72 72 72 72 72 72 72 72 71 70 70 70 70 70 70
75 75 74 74 74 74 75 75 75 75 75 75 74 75 75 73 74 73 73 71 70 67 65 65 63 64 65 64 67 67 69 68 68 67 68 69 71 72 72 72 72 72 73 73 73 73 73 73 74 74 74 74 74 74 75 74 74 74 74 74 73 72 72 73 72 72 72 72 72 72 72 72 72 72 72 72 72 71 70 68 69 69 70 70 69
75 75 74 74 74 74 75 75 75 75 75 74 75 75 75 73 73 72 72 73 73 69 66 65 63 64 64 66 63 64 67 66 66 66 65 67 69 70 71 71 72 72 73 73 73 73 73 73 73 73 74 74 74 74 74 74 74 74 74 74 74 73 73 72 72 72 72 72 72 72 72 72 72 71 71 71 71 70 68 68 68 69 69 69 69
75 75 75 74 74 74 75 75 75 75 75 74 74 74 74 73 73 73 72 70 69 67 69 67 65 64 61 61 61 62 61 63 63 65 64 66 67 69 70 70 71 72 73 72 72 72 72 73 73 73 73 73 74 74 74 74 74 75 73 73 74 73 73 73 72 72 72 72 72 71 71 71 71 71 71 71 70 69 68 68 68 68 68 68 69
75 75 75 74 74 74 74 75 75 75 75 74 74 73 74 74 73 74 72 70 69 68 68 66 65 67 63 60 60 58 59 61 60 65 63 63 65 67 69 70 70 71 72 72 72 72 72 72 73 73 73 73 73 73 73 74 74 74 74 75 75 74 73 73 73 71 72 72 70 72 72 71 71 70 70 69 69 69 68 67 67 68 68 68 69
75 75 75 75 74 74 74 75 74 74 74 74 74 73 73 73 73 73 73 70 71 65 63 70 66 70 64 65 65 63 61 62 60 61 67 67 66 66 68 69 70 71 72 72 71 72 72 72 72 72 73 73 73 73 73 73 73 73 74 74 75 74 74 73 73 71 70 71 71 72 72 71 71 71 69 69 68 68 68 68 68 69 69 70 70
74 75 75 75 75 74 74 74 75 74 75 74 73 73 73 73 74 73 73 73 69 67 65 64 67 68 69 68 71 68 62 62 62 60 61 65 65 64 65 67 68 69 70 70 70 71 72 72 72 72 72 72 72 73 73 73 73 74 74 74 74 74 74 73 73 72 71 71 71 72 71 70 70 70 69 68 67 69 69 69 69 69 70 70 70
74 74 75 75 75 74 74 74 74 74 75 74 74 74 74 74 74 74 74 73 69 69 66 65 66 65 69 68 68 68 65 63 61 62 63 60 63 63 61 64 66 67 68 69 69 70 71 72 72 72 72 73 73 72 73 72 73 73 74 73 73 73 74 74 74 73 71 71 71 70 69 69 69 69 68 67 67 67 69 70 70 70 70 70 70
74 74 75 75 76 75 75 74 74 74 75 75 74 74 74 74 75 74 73 73 71 69 67 66 65 65 67 65 66 65 64 65 64 64 64 60 59 59 63 63 63 64 66 67 69 70 70 71 71 72 73 73 73 72 72 73 72 72 73 73 73 73 73 74 73 73 72 71 70 69 68 68 68 68 68 68 68 69 70 70 70 70 69 69 69
74 74 74 75 75 75 75 75 74 74 75 75 74 74 74 74 74 74 74 73 72 70 68 67 66 66 66 67 64 65 64 64 63 62 60 64 62 60 61 61 63 66 67 65 67 67 69 70 70 70 72 73 73 72 72 72 73 72 72 73 73 73 73 74 73 73 72 71 70 69 68 68 69 69 69 69 70 70 70 70 69 69 69 70 70
74 74 74 74 75 75 75 75 75 76 76 75 75 74 74 74 74 75 74 74 73 71 71 69 67 67 65 66 66 64 64 63 63 62 61 61 59 58 58 60 61 62 66 64 67 66 69 69 69 68 71 71 72 72 72 72 72 72 72 73 73 73 74 74 73 73 72 72 71 70 69 69 69 69 69 70 70 70 69 69 69 70 70 70 69
74 74 74 74 74 75 75 75 76 76 76 76 75 75 75 75 75 74 74 74 73 73 71 70 67 67 65 64 64 64 64 64 63 64 62 62 61 60 61 63 62 62 64 65 65 65 66 67 68 68 69 70 71 72 72 72 72 72 73 73 73 73 74 74 73 73 72 72 72 71 70 70 69 70 70 70 70 70 70 70 71 71 70 69 69
73 73 74 74 74 74 75 75 75 76 76 76 76 76 75 75 75 74 74 74 73 73 72 71 69 67 66 64 64 64 64 65 64 63 63 65 62 61 59 60 63 62 64 61 64 64 65 66 68 68 68 70 70 71 71 71 71 71 73 73 73 72 73 73 73 72 72 71 71 71 71 71 71 71 71 71 71 72 71 70 70 70 69 68 69
73 73 74 74 74 74 75 75 75 76 76 76 76 76 76 75 75 74 74 74 74 73 73 72 70 68 67 66 64 64 64 64 64 64 62 62 61 60 62 65 61 60 63 65 65 62 64 66 66 69 69 69 69 70 71 70 70 71 72 72 71 71 72 72 73 72 72 71 71 71 71 71 71 71 71 71 71 71 71 71 70 70 70 70 70
73 73 74 74 74 74 75 75 75 75 76 76 76 76 76 76 75 75 75 74 74 73 73 72 71 69 68 67 66 65 65 67 65 64 64 63 62 62 62 60 60 60 62 64 64 63 60 66 66 66 68 70 69 70 70 70 69 70 71 71 72 70 70 71 72 72 71 71 71 70 70 70 71 71 71 71 71 71 71 71 70 70 70 70 70
73 73 74 74 74 74 75 75 75 75 76 76 76 76 76 75 75 75 75 75 74 73 73 72 71 71 69 69 68 65 66 65 66 66 65 65 64 64 64 63 61 60 62 61 62 63 62 64 65 67 68 68 69 69 69 68 69 69 71 71 71 71 69 69 70 71 71 70 70 70 70 70 70 70 71 71 70 70 70 71 72 72 71 71 70
73 73 73 74 74 74 74 74 75 75 76 76 76 76 76 75 75 75 75 74 75 74 73 73 72 71 70 69 69 68 68 67 67 67 68 68 66 66 65 64 64 63 62 62 62 61 63 60 62 68 67 69 68 69 69 69 69 69 69 70 70 70 68 67 68 69 70 70 69 69 69 69 69 69 70 70 70 70 71 71 71 72 71 71 70
72 73 73 73 74 75 74 74 75 75 75 76 76 76 76 75 75 75 75 75 74 74 74 73 73 72 71 70 69 68 69 68 67 67 68 68 67 66 66 66 66 63 64 60 61 63 64 63 61 64 67 67 68 68 68 69 69 69 69 69 68 69 68 66 66 66 67 68 68 67 67 67 67 67 67 68 68 69 70 71 71 71 71 71 71
73 73 73 73 73 74 74 74 74 75 75 75 76 75 75 75 75 75 75 75 74 74 74 74 73 73 72 71 70 69 69 68 68 66 68 68 68 67 66 66 65 65 64 64 60 65 63 64 64 61 63 67 65 66 67 68 68 68 69 69 69 68 68 68 66 65 64 65 66 66 65 65 65 65 65 66 67 67 68 69 70 71 71 71 71
71 72 73 73 73 73 73 73 73 74 74 75 75 76 75 75 75 75 75 75 74 74 74 74 73 73 72 72 71 71 70 69 69 68 68 68 67 67 67 66 66 66 66 64 62 61 65 62 64 66 63 64 67 66 67 67 67 69 69 69 69 69 68 68 67 66 64 64 64 64 64 64 63 64 65 65 66 67 68 69 69 70 70 70 70
71 71 72 72 73 73 73 73 73 74 74 74 75 75 75 75 75 75 75 74 74 74 74 74 73 73 73 72 72 72 71 70 69 69 68 68 67 67 67 66 66 66 65 64 62 62 64 65 64 64 65 65 65 67 67 66 67 68 69 69 69 68 68 68 68 66 65 64 64 64 64 64 63 64 64 65 66 67 67 68 68 68 68 68 69
71 71 72 72 72 73 73 73 73 73 74 74 74 75 75 75 75 74 74 74 74 74 74 74 74 73 73 73 72 72 72 70 70 69 68 68 68 67 67 66 66 66 66 64 63 63 62 64 65 67 66 66 65 68 66 65 66 68 67 69 68 68 68 68 68 68 66 66 65 64 64 64 63 63 64 64 65 66 66 67 67 66 67 67 67
71 71 71 71 72 73 72 73 73 73 74 74 74 75 75 75 75 74 74 74 74 74 74 74 74 74 73 73 72 72 72 71 70 69 68 68 68 68 68 67 67 66 66 65 65 64 63 63 65 64 65 67 65 66 67 66 67 68 67 67 66 67 68 68 68 67 66 66 65 65 64 64 64 63 63 63 64 64 65 65 65 65 65 65 65
71 71 71 72 72 72 72 72 73 73 73 73 74 74 74 74 74 74 75 75 74 74 74 74 74 74 73 73 73 73 72 72 71 71 70 69 69 69 68 69 68 68 67 66 66 65 65 63 65 65 66 66 67 67 67 67 66 67 67 67 67 67 67 68 68 67 67 65 65 65 65 64 64 63 63 63 63 62 63 63 64 64 63 64 64
70 71 72 72 72 72 72 72 72 72 73 73 73 74 74 74 74 74 74 74 74 74 74 74 74 74 74 73 73 73 73 72 72 71 71 70 69 69 68 69 68 68 68 67 67 66 65 64 64 66 67 67 67 68 68 66 67 67 67 67 67 67 68 66 67 67 66 66 65 65 64 64 64 64 63 63 62 62 62 63 62 62 62 62 61
70 70 71 72 72 72 72 72 72 72 73 73 73 73 73 74 74 74 74 74 74 74 74 74 74 74 74 74 73 74 73 72 72 72 72 71 70 69 69 69 68 68 68 68 68 67 66 65 65 65 66 65 66 67 68 67 66 66 67 67 67 67 67 66 65 65 66 66 66 66 66 65 64 64 64 64 63 62 62 62 62 62 61 60 59
70 70 71 72 72 72 72 72 72 72 72 72 73 73 73 73 74 74 74 74 74 74 74 74 74 74 74 74 74 74 73 73 72 72 72 72 71 71 70 70 69 68 68 68 68 67 67 66 66 66 65 66 67 64 68 67 67 67 65 65 65 67 67 67 67 66 65 65 66 66 66 66 66 65 63 62 63 63 62 61 61 61 60 59 58
70 70 71 71 71 72 72 72 72 73 72 72 73 73 73 73 73 73 74 74 74 74 74 74 74 74 74 74 73 73 73 73 73 73 73 72 72 71 71 71 70 69 68 68 67 67 66 66 66 65 66 66 67 66 67 67 66 66 66 65 63 64 66 68 67 67 67 67 66 65 65 65 65 65 63 63 63 63 62 62 63 63 61 59 59
70 70 71 71 71 71 72 72 72 72 72 72 72 72 73 73 73 73 73 73 73 73 74 74 74 74 74 74 74 73 74 73 70 70 70 70 72 72 71 71 70 69 69 68 68 67 67 66 66 66 66 66 66 66 65 66 65 64 66 67 65 65 66 66 67 67 67 66 66 64 65 66 66 67 67 67 67 65 64 64 64 64 62 59 59
71 71 71 71 71 71 71 72 72 72 72 72 70 65 67 72 73 73 73 73 73 73 73 73 73 74 74 73 74 73 70 69 68 67 66 66 66 70 72 72 71 70 69 69 68 68 67 66 66 66 65 65 65 65 65 66 66 67 66 67 65 66 67 65 66 67 68 66 65 66 66 67 65 66 67 66 66 68 67 66 64 63 62 61 60
71 71 71 70 71 71 71 71 71 72 72 71 65 63 64 65 71 73 73 73 73 73 73 73 73 73 73 74 74 74 72 69 70 66 66 65 65 65 65 66 68 71 70 69 68 68 67 67 67 66 65 65 65 65 65 65 66 66 66 67 66 66 65 64 63 68 69 67 67 66 65 67 67 66 66 66 65 66 66 66 63 62 61 61 61
71 71 70 70 70 70 71 71 71 71 72 67 64 63 63 62 65 72 72 72 72 73 73 73 73 73 73 73 73 74 74 74 73 73 69 65 63 64 64 64 64 65 66 69 70 69 68 67 67 67 66 66 66 66 65 65 65 66 67 66 67 66 65 65 65 63 68 68 66 65 64 66 68 66 65 65 66 66 65 64 63 61 60 60 60
71 71 71 70 70 70 70 70 70 71 71 66 63 62 62 62 62 66 72 72 72 72 73 73 73 73 73 73 73 74 74 71 72 74 74 73 65 63 63 63 63 63 63 63 64 69 70 69 68 68 67 67 66 66 66 66 67 66 66 66 66 66 66 65 64 63 65 67 66 64 63 64 66 66 64 65 65 65 65 63 63 62 61 60 60
71 71 70 70 70 70 70 70 70 70 70 66 63 61 61 61 61 63 71 72 72 72 72 72 73 73 73 73 73 73 73 74 74 74 74 74 74 73 70 68 68 67 63 61 61 61 65 69 69 69 69 69 67 68 68 68 67 66 66 66 67 66 66 65 65 64 64 66 64 63 63 63 65 64 63 64 65 65 66 64 62 61 61 60 59
71 71 70 70 70 70 70 70 69 69 68 63 61 60 60 59 60 62 70 71 72 72 73 73 73 73 73 73 73 73 73 73 74 73 74 74 74 73 73 72 71 70 70 69 67 66 66 66 68 69 69 69 69 69 69 69 69 68 68 67 68 68 68 67 65 64 63 65 65 64 61 63 65 63 63 64 65 66 66 63 62 61 61 60 59
70 71 71 70 70 70 70 70 69 69 69 62 60 59 59 59 60 66 69 71 72 72 72 72 73 73 73 73 73 73 73 73 70 65 68 73 73 73 72 73 73 72 72 69 66 66 68 68 68 67 68 68 66 69 69 69 69 69 68 70 68 67 66 65 64 64 64 64 66 64 63 63 64 64 63 64 65 64 65 66 62 61 61 60 60
70 70 70 70 71 70 70 70 70 69 69 65 59 58 58 58 59 67 69 70 71 71 71 72 72 73 73 73 73 73 73 73 69 64 63 65 72 72 72 72 72 72 72 72 66 63 63 62 62 63 63 63 62 61 60 60 64 67 70 67 66 67 65 64 64 64 64 64 65 65 64 63 64 64 63 64 65 64 64 66 66 61 60 60 59
70 70 70 70 70 70 70 70 69 69 69 66 59 57 56 56 60 68 69 70 70 71 71 72 72 73 73 70 73 73 73 73 66 63 63 65 71 72 72 72 72 72 72 72 71 70 62 61 61 61 61 61 61 61 60 60 60 63 67 66 67 68 65 65 64 64 64 64 65 66 65 63 64 65 64 64 65 65 65 65 65 65 61 60 58
71 71 71 70 70 70 69 69 68 69 69 67 59 57 56 55 60 68 69 70 70 70 70 71 72 72 72 71 69 69 70 70 64 62 61 64 71 72 72 72 71 71 72 72 71 71 71 69 68 67 67 66 66 66 67 62 61 66 67 67 68 67 66 65 65 65 64 64 66 67 64 64 64 64 65 64 62 64 67 66 66 65 65 64 63